#timestamp,LO_Frequency,Hit 
1500159615.4,286046715.8,N
1500159635.2,286046717.0,N
1500159655.0,286046719.2,N
1500159656.0,286046719.2,N
1500159705.8,286046714.2,Y
1500159715.7,286046834.4,N
1500159735.6,286047002.3,N
1500159755.4,286046999.8,N
1500159775.3,286047000.6,N
1500159795.1,286047000.3,N
1500159796.0,286047000.3,N
1500159815.8,286047001.0,N
1500159835.7,286047001.2,N
1500159855.5,286046998.7,N
1500159875.3,286046996.5,N
1500159895.2,286046999.2,N
1500159915.0,286046999.6,N
1500159915.9,286046999.6,N
1500159935.8,286046999.6,N
1500159955.6,286046999.4,N
1500159975.4,286046999.0,N
1500159995.3,286047001.2,N
1500160015.1,286046998.9,N
1500160035.9,286046997.7,N
1500160055.7,286046994.9,N
1500160075.5,286046995.0,N
1500160095.4,286046995.9,N
1500160115.2,286046995.3,N
1500160135.0,286046995.8,N
1500160135.9,286046995.8,N
1500160155.8,286046993.7,N
1500160175.6,286046994.2,N
1500160195.5,286046994.8,N
1500160215.3,286046994.0,N
1500160235.1,286046994.3,N
1500160255.9,286046994.4,N
1500160275.7,286046991.9,N
1500160295.1,286046992.3,N
1500160315.9,286046991.9,N
1500160335.7,286046993.1,N
1500160355.5,286046993.1,N
1500160375.4,286046993.2,N
1500160395.2,286046993.0,N
1500160415.1,286046992.5,N
1500160416.0,286046992.5,N
1500160435.8,286046993.0,N
1500160455.6,286046993.1,N
1500160475.5,286046991.5,N
1500160495.3,286046991.5,N
1500160515.2,286046991.5,N
1500160535.9,286046991.2,N
1500160555.7,286046989.0,N
1500160575.6,286046990.9,N
1500160595.4,286046991.4,N
1500160615.2,286046990.9,N
1500160635.1,286046991.6,N
1500160636.0,286046991.6,N
1500160655.8,286046991.0,N
1500160675.7,286046988.7,N
1500160695.5,286046988.9,N
1500160715.3,286046988.9,N
1500160735.2,286046989.4,N
1500160755.0,286046989.4,N
1500160755.9,286046989.4,N
1500160775.7,286046989.9,N
1500160795.6,286046987.3,N
1500160815.4,286046986.9,N
1500160835.3,286046987.0,N
1500160855.1,286046987.8,N
1500160856.0,286046987.8,N
1500160875.8,286046987.4,N
1500160895.7,286046987.8,N
1500160915.5,286046987.2,N
1500160935.3,286046988.3,N
1500160955.2,286046988.2,N
1500160975.0,286046985.8,N
1500160975.9,286046985.8,N
1500160995.8,286046988.4,N
1500161015.6,286046988.0,N
1500161035.4,286046987.2,N
1500161055.3,286046987.8,N
1500161075.1,286046987.9,N
1500161095.9,286046985.3,N
1500161115.7,286046988.2,N
1500161135.5,286046987.8,N
1500161155.4,286046987.1,N
1500161175.2,286046987.1,N
1500161195.0,286046986.9,N
1500161195.9,286046986.9,N
1500161215.8,286046987.3,N
1500161235.6,286046987.8,N
1500161255.5,286046988.2,N
1500161275.3,286046988.2,N
1500161295.1,286046986.1,N
1500161315.9,286046985.5,N
1500161335.7,286046985.3,N
1500161355.6,286046988.2,N
1500161375.4,286046987.8,N
1500161395.2,286046987.8,N
1500161415.1,286046988.2,N
1500161416.0,286046988.2,N
1500161435.8,286046988.1,N
1500161455.6,286046987.9,N
1500161475.5,286046987.6,N
1500161495.3,286046985.3,N
1500161515.2,286046986.5,N
1500161535.9,286046985.8,N
1500161555.7,286046988.2,N
1500161575.6,286046988.0,N
1500161595.4,286046987.6,N
1500161615.2,286046987.7,N
1500161635.1,286046988.1,N
1500161636.0,286046988.1,N
1500161655.8,286046988.2,N
1500161675.7,286046987.6,N
1500161695.5,286046987.8,N
1500161715.3,286046988.2,N
1500161735.2,286046987.7,N
1500161755.0,286046988.4,N
1500161755.9,286046988.4,N
1500161775.8,286046986.0,N
1500161795.6,286046985.6,N
1500161815.4,286046988.4,N
1500161835.3,286046988.4,N
1500161855.1,286046987.2,N
1500161875.8,286046987.1,N
1500161895.7,286046989.3,N
1500161915.5,286046988.5,N
1500161935.4,286046988.7,N
1500161955.2,286046991.1,N
1500161975.0,286046993.0,N
1500161975.9,286046993.0,N
1500161995.8,286046993.1,N
1500162015.6,286046991.2,N
1500162035.4,286046990.1,N
1500162055.3,286046993.1,N
1500162075.1,286046988.7,N
1500162095.9,286046990.9,N
1500162115.7,286046993.2,N
1500162135.5,286046990.7,N
1500162155.4,286046990.3,N
1500162175.2,286046994.1,N
1500162195.1,286046994.8,N
1500162196.0,286046994.8,N
1500162215.8,286046991.8,N
1500162235.6,286046993.3,N
1500162255.5,286046995.8,N
1500162275.3,286046997.4,N
1500162295.2,286046995.8,N
1500162315.9,286046994.0,N
1500162335.7,286046995.1,N
1500162355.6,286046997.3,N
1500162375.4,286046998.8,N
1500162395.2,286047000.9,N
1500162415.1,286046996.9,N
1500162416.0,286046996.9,N
1500162435.8,286046997.6,N
1500162455.7,286046996.5,N
1500162475.5,286046995.6,N
1500162495.3,286046995.1,N
1500162515.2,286046997.7,N
1500162535.0,286046997.4,N
1500162535.9,286046997.4,N
1500162555.7,286046996.1,N
1500162575.6,286046995.6,N
1500162595.4,286046999.6,N
1500162615.3,286047000.3,N
1500162635.1,286047000.8,N
1500162655.8,286046999.8,N
1500162675.7,286047000.4,N
1500162695.5,286047002.1,N
1500162715.4,286047001.9,N
1500162735.2,286047002.8,N
1500162755.0,286047000.6,N
1500162755.9,286047000.6,N
1500162775.8,286047001.9,N
1500162795.6,286047003.9,N
1500162815.4,286046998.5,N
1500162835.3,286046998.6,N
1500162855.1,286046999.8,N
1500162875.9,286047003.9,N
1500162895.7,286047002.9,N
1500162915.6,286047003.6,N
1500162935.4,286047002.9,N
1500162955.2,286047003.6,N
1500162975.1,286047002.9,N
1500162976.0,286047002.9,N
1500162995.8,286047004.9,N
1500163015.7,286047006.0,N
1500163035.5,286047001.3,N
1500163055.3,286047004.1,N
1500163075.2,286047003.2,N
1500163095.0,286047006.0,N
1500163095.9,286047006.0,N
1500163115.7,286047003.4,N
1500163135.6,286047003.7,N
1500163155.4,286047005.9,N
1500163175.3,286047004.1,N
1500163195.1,286047001.8,N
1500163196.0,286047001.8,N
